CAPE
0 0 0 0 0 0 0 0 0 0 0 0 0 0 0 0 0 0 0 0 0 0 0 0 0 0 0 0 0 86 24 437 756 1181 1490 1777 2016 2137 2199 2194 2177 2202 2172 2139 2039 1834 1658 1621 1694 1722 1679 1615 1481 1460 1310 1222 1222 1289 1355 1341 998 923 731 496 503 620 679 603 609 584 542 494 539 513 572 670 741 843 831 887 901 964 1023 1034 1051 1186
0 0 0 0 0 0 0 0 0 0 0 0 0 0 0 0 0 0 0 0 0 0 0 0 0 0 0 0 120 391 265 722 741 1098 1517 1734 1822 1894 1963 1951 1944 1932 2089 2092 1854 1820 1801 1594 1672 1732 1614 1511 1424 1605 1495 1291 1401 1461 1330 1109 1016 800 575 477 678 494 624 680 719 780 712 553 572 552 592 685 795 855 902 1055 1069 1210 1222 1175 1240 1188
0 0 0 0 0 0 0 0 0 0 0 0 0 0 0 0 0 0 0 0 0 0 0 0 0 0 0 0 50 442 145 648 804 1097 1416 1633 1686 1815 1893 1817 1847 1934 1934 1904 1758 1696 1677 1725 1790 1756 1534 1374 1539 1580 1609 1496 1454 1288 1234 1104 969 749 539 451 586 595 626 696 735 802 851 798 700 690 690 755 904 1005 1081 1252 1346 1409 1406 1418 1421 1123
0 0 0 0 0 0 0 0 0 0 0 0 0 0 0 0 0 0 0 0 0 0 0 0 0 0 0 29 0 0 228 628 842 1062 1320 1588 1692 1845 1878 1804 1904 2036 2065 1871 1755 1707 1660 1750 1749 1532 1419 1522 1692 1557 1298 1364 1336 1203 1269 1065 861 706 545 448 617 619 632 729 743 732 746 837 804 856 867 874 984 1086 1151 1386 1482 1552 1542 1478 1235 1126
0 0 0 0 0 0 0 0 0 0 0 0 0 0 0 0 0 0 0 0 0 0 0 0 0 0 0 0 89 412 472 562 774 1001 1271 1536 1665 1699 1725 1798 2028 2115 2100 1760 1582 1666 1740 1762 1770 1750 1747 1772 1639 1366 1416 1329 1267 1154 1147 1020 819 676 607 531 609 728 703 749 847 898 824 822 845 901 1018 1008 1062 1140 1229 1344 1419 1554 1556 1487 1232 1243
0 0 0 0 0 0 0 0 0 0 0 0 0 0 0 0 0 0 0 0 0 0 0 0 0 0 0 0 0 869 604 602 745 906 1121 1405 1541 1608 1822 1866 2092 2153 2045 1400 1280 1491 1662 1712 1803 1716 1544 1563 1387 1195 1226 1255 1202 1099 1032 947 856 626 557 500 652 735 780 812 835 926 1023 1000 965 907 1056 1068 1191 1188 1199 1241 1372 1448 1425 1122 1107 1256
0 0 0 0 0 0 0 0 0 0 0 0 0 0 0 0 0 0 0 0 0 0 0 0 0 0 0 0 400 761 675 658 726 786 955 1104 1102 1326 1711 1781 1712 1539 1395 1211 1179 1370 1658 1622 1526 1424 1418 1380 1190 1166 1126 1164 1104 1064 955 907 772 614 527 614 634 727 759 836 885 861 970 1042 1008 980 1036 1068 1171 1178 1225 1295 1361 1277 1203 1050 1053 1106
0 0 0 0 0 0 0 0 0 0 0 0 0 0 0 0 0 0 0 0 0 0 0 0 0 0 0 0 774 798 693 728 716 722 769 872 940 1052 1373 1603 1564 1384 1079 1107 1168 1333 1491 1445 1298 1346 1327 1229 978 1011 1113 1103 1086 1142 970 922 675 698 712 737 749 765 801 832 900 957 991 1019 1064 975 1070 1131 1182 1187 1175 1195 1028 856 925 853 767 721
0 0 0 0 0 0 0 0 0 0 0 0 0 0 0 0 0 0 0 0 0 0 0 0 0 0 0 456 878 908 691 685 721 726 815 850 991 1080 1138 1420 1586 1368 1140 1161 1296 1410 1136 1229 1285 1311 1338 1248 1055 1004 1085 1224 1162 1091 947 780 806 845 919 896 899 856 834 883 932 987 1042 1076 1066 972 1097 1184 1160 1040 885 824 756 790 756 665 547 530
0 0 0 0 0 0 0 0 0 0 0 0 0 0 0 0 0 0 0 0 0 0 0 0 0 0 0 534 1043 920 712 668 766 748 866 852 1048 1199 1219 1357 1390 1298 1221 1182 1078 950 1059 1164 1343 1404 1323 1173 1030 1006 1216 1278 1095 1010 902 818 920 900 949 1018 1016 992 931 919 915 929 1009 1049 1038 1074 1131 1231 1071 854 956 940 847 819 751 708 636 622
0 0 0 0 0 0 0 0 0 0 0 0 0 0 0 0 0 0 0 0 0 0 0 0 0 0 0 0 957 872 853 801 820 837 883 872 980 1248 1316 1316 1297 1207 1155 1125 994 1062 1169 1358 1490 1376 1279 1216 1232 1102 1117 1139 1097 1046 892 819 800 892 979 1078 1160 1102 1043 936 924 934 996 997 1149 1065 990 1068 984 884 958 970 757 662 679 680 748 774
0 0 0 0 0 0 0 0 0 0 0 0 0 0 0 0 0 0 0 0 0 0 0 0 0 0 0 0 634 887 858 870 926 959 930 963 1004 986 1079 1106 1210 1178 1142 1120 1086 1232 1397 1412 1439 1499 1266 1297 1200 1032 913 1083 1158 1058 929 956 875 944 1004 1076 1098 1074 1113 1036 1044 1050 1132 1139 1164 1007 873 934 965 879 881 811 659 624 640 681 712 722
0 0 0 0 0 0 0 0 0 0 0 0 0 0 0 0 0 0 0 0 0 0 0 0 0 0 0 0 0 865 864 848 958 969 969 1011 1055 1012 913 940 981 1116 1027 1061 1149 1247 1373 1437 1555 1433 1296 1427 1289 1137 1133 1067 1027 992 891 915 920 956 1058 1101 1130 1166 1158 1153 1176 1183 1233 1218 1081 924 863 927 906 833 750 652 636 636 640 645 671 687
0 0 0 0 0 0 0 0 0 0 0 0 0 0 0 0 0 0 0 0 0 0 0 0 0 0 0 0 0 705 834 907 924 981 1024 1028 1045 1040 942 990 1040 1034 1014 1124 1215 1336 1422 1558 1663 1478 1227 1373 1357 1187 1283 1087 1127 1130 1090 1003 996 1012 1059 1129 1187 1116 1139 1179 1184 1094 1072 955 1039 947 903 891 820 795 770 724 682 661 652 654 626 510
0 0 0 0 0 0 0 0 0 0 0 0 0 0 0 0 0 0 0 0 0 0 0 0 0 0 0 0 0 311 737 904 933 962 1070 1143 1130 1061 984 1056 1137 1099 1115 1232 1315 1365 1594 1600 1473 1502 1250 1262 1339 1262 1332 1184 1256 1173 1068 1146 1190 1110 1109 1197 1181 1179 1165 1167 1020 1052 970 962 995 871 876 840 761 698 726 711 708 691 663 617 519 380
0 0 0 0 0 0 0 0 0 0 0 0 0 0 0 0 0 0 0 0 0 0 0 0 0 0 0 0 0 12 616 872 953 945 1045 1166 1139 1178 1176 1275 1311 1244 1261 1277 1418 1497 1690 1681 1622 1648 1423 1494 1302 1314 1322 1230 1260 1260 1154 1134 1148 1032 1069 1092 1241 1232 1130 1078 996 975 965 1003 941 814 827 788 690 650 684 683 650 659 592 524 418 285
0 0 0 0 0 0 0 0 0 0 0 0 0 0 0 0 0 0 0 0 0 0 0 0 0 0 0 3 532 14 429 775 891 984 1046 1156 1279 1306 1322 1416 1512 1410 1436 1420 1516 1519 1517 1533 1707 1720 1533 1691 1490 1362 1354 1232 1256 1278 1244 1150 1138 1075 947 1102 1265 1178 1065 983 925 887 910 925 853 817 827 774 717 693 666 687 667 606 535 422 384 230
0 0 0 0 0 0 0 0 0 0 0 0 0 0 0 0 0 0 0 0 0 0 0 0 0 0 0 0 688 644 630 972 1101 1073 1140 1240 1375 1433 1443 1560 1652 1491 1516 1564 1477 1488 1523 1605 1732 1657 1522 1546 1587 1418 1269 1316 1224 1161 1165 1140 1155 1118 1039 1174 1170 1107 968 934 908 808 778 783 771 750 722 704 652 617 612 587 564 540 495 398 257 97
0 0 0 0 0 0 0 0 0 0 0 0 0 0 0 0 0 0 0 0 0 0 0 0 0 0 0 0 786 820 823 1074 1223 1178 1188 1341 1464 1516 1572 1648 1685 1564 1459 1442 1394 1547 1582 1631 1789 1580 1434 1488 1610 1434 1317 1332 1215 1125 1150 1118 1133 1097 1060 1095 1083 989 849 836 826 762 719 701 682 673 634 607 592 578 580 598 590 563 510 299 78 0
0 0 0 0 0 0 0 0 0 0 0 0 0 0 0 0 0 0 0 0 0 0 0 0 0 0 0 0 828 991 945 1155 1338 1253 1384 1416 1561 1610 1632 1693 1724 1746 1565 1391 1329 1540 1630 1791 1740 1594 1545 1496 1512 1313 1156 1181 1128 1156 1146 1118 1095 1050 984 925 880 858 799 749 741 694 668 629 581 575 576 582 585 578 578 561 518 473 367 133 0 0
0 0 0 0 0 0 0 0 0 0 0 0 0 0 0 0 0 0 0 0 0 0 0 0 0 0 112 0 304 939 1064 1313 1431 1402 1449 1502 1664 1666 1639 1730 1750 1777 1608 1462 1440 1530 1687 1818 1770 1595 1415 1355 1406 1269 1289 1180 1170 1125 1138 1110 1056 974 926 877 779 795 785 677 667 632 530 554 534 526 543 574 561 545 545 499 397 276 169 4 0 122
0 0 0 0 0 0 0 0 0 0 0 0 0 0 0 0 0 0 0 0 0 0 0 0 0 53 285 455 408 822 1137 1391 1540 1532 1545 1604 1790 1631 1680 1815 1733 1759 1684 1571 1543 1559 1679 1713 1742 1624 1307 1294 1176 1247 1228 1214 1212 1163 1078 1018 1023 886 742 769 729 753 744 633 584 564 564 564 538 567 574 584 542 489 377 236 124 6 0 0 1 135
0 2 0 0 0 0 0 0 0 0 0 0 0 0 0 0 0 0 0 0 0 0 0 0 0 11 234 1187 990 590 1210 1458 1577 1646 1646 1779 1826 1786 1782 1750 1684 1659 1617 1617 1679 1686 1698 1733 1633 1444 1304 1216 1115 1124 1228 1240 1221 1152 1064 998 940 819 751 788 739 744 718 641 546 521 481 527 576 586 577 445 223 0 0 0 0 0 0 6 157 141
24 2 0 0 0 0 0 0 0 0 0 0 0 0 0 0 0 0 0 0 0 0 0 0 0 226 303 1414 1062 405 1143 1535 1623 1677 1730 1840 1862 1852 1838 1772 1694 1652 1610 1506 1554 1813 1856 1737 1516 1397 1140 992 1095 1196 1254 1241 1228 1181 1073 956 855 769 706 695 638 638 624 561 520 501 488 440 398 356 251 117 0 0 0 0 0 0 10 121 155 120
0 0 0 0 0 0 0 0 0 0 0 0 0 0 0 0 0 0 0 0 0 0 0 0 0 0 587 1403 820 385 1085 1546 1672 1741 1806 1857 1876 1922 1869 1826 1783 1807 1665 1427 1549 1883 1787 1564 1315 1194 1028 1014 1111 1200 1236 1219 1264 1164 1000 860 731 663 582 558 545 517 493 486 506 467 328 125 0 0 0 0 31 64 92 72 15 49 62 147 129 99
2 4 0 0 0 0 0 0 0 0 0 0 0 0 0 0 0 0 0 0 0 0 0 0 0 404 1187 1362 826 358 1050 1481 1691 1811 1856 1882 1905 1963 1908 1824 1812 1752 1504 1574 1855 1809 1568 1450 1216 1114 981 1088 1154 1183 1161 1176 1151 1024 778 678 630 622 561 511 515 498 562 563 417 64 0 0 0 0 49 138 187 161 100 77 84 108 122 101 111 0
4 6 0 0 0 0 0 0 0 0 0 0 0 0 0 0 0 0 0 0 0 0 0 0 110 709 1330 1322 953 566 979 1409 1705 1787 1844 1880 1912 1932 1893 1802 1697 1628 1521 1649 1783 1481 1430 1344 1029 991 1038 1110 1189 1146 1140 1081 933 755 688 632 594 601 564 533 538 570 555 380 4 0 0 1 1 0 116 111 85 62 71 96 115 120 100 42 0 0
6 7 0 0 3 0 0 0 0 0 0 0 0 0 0 0 0 0 0 0 0 0 0 171 627 865 1193 1426 1311 783 947 1346 1552 1716 1739 1748 1844 1866 1807 1754 1608 1470 1390 1680 1484 1356 1434 1111 971 1046 1142 1169 1183 1132 1087 928 780 671 627 659 624 563 514 472 496 561 500 283 0 0 1 2 2 0 0 0 0 0 17 46 39 0 0 0 0 0
11 8 0 0 6 3 0 0 0 0 0 0 0 0 0 0 0 0 0 2 4 0 0 314 566 634 1242 1515 1414 1165 1103 1398 1487 1652 1684 1741 1805 1720 1661 1614 1468 1371 1380 1368 1258 1470 1231 946 992 1063 1136 1105 1076 1068 1007 862 741 612 662 664 620 576 565 509 505 576 509 204 1 0 0 0 0 0 0 0 0 0 0 0 0 0 0 0 0 0
17 5 0 6 16 5 0 0 0 0 0 0 0 0 0 0 0 0 0 0 0 4 47 422 570 864 1142 1650 1551 1383 1152 1150 1336 1404 1643 1647 1703 1644 1657 1534 1342 1276 1252 1294 1394 1351 1230 1042 1094 1004 1046 999 1026 1001 929 845 739 681 688 682 638 578 517 422 389 74 49 59 32 0 0 0 0 0 0 0 0 0 0 0 0 0 0 0 0 0
1 14 12 8 1 0 0 0 0 0 0 0 0 0 0 0 0 0 0 0 103 116 295 438 602 948 1473 1673 1578 1403 1385 1371 1357 1567 1526 1541 1636 1604 1493 1359 1255 1203 1329 1485 1323 1313 1174 1147 937 918 927 939 956 929 901 842 782 674 659 627 564 559 447 397 253 18 72 73 0 0 0 0 0 0 0 1 0 0 0 0 0 0 0 0 0 0
0 12 4 5 0 0 0 0 0 0 0 0 0 0 0 0 0 0 0 0 0 328 340 365 466 849 1569 1869 1705 1612 1551 1500 1456 1493 1577 1606 1603 1525 1441 1369 1305 1274 1434 1480 1408 1411 1192 875 851 891 840 837 851 850 822 790 800 680 611 592 545 557 483 261 40 243 224 0 0 0 0 0 0 0 0 1 0 0 0 0 0 0 0 0 0 0
6 8 3 0 0 0 0 0 0 0 0 0 0 13 0 0 0 0 0 0 0 304 197 111 203 600 1485 1896 1875 1784 1724 1610 1553 1595 1642 1674 1651 1549 1487 1442 1419 1395 1452 1524 1528 1318 1064 839 836 848 789 768 768 828 721 638 562 504 554 573 507 525 540 425 300 256 266 90 30 0 0 0 0 0 0 0 1 0 0 0 0 0 0 0 0 0
5 6 8 0 0 0 0 0 0 0 0 0 168 104 188 0 0 0 0 0 0 123 222 0 162 705 1648 1869 1793 2007 1909 1853 1792 1687 1667 1677 1679 1621 1516 1380 1272 1338 1350 1471 1431 1122 1011 969 896 878 902 896 904 872 768 658 632 351 252 453 474 453 508 408 281 272 131 57 10 1 0 0 0 1 2 3 3 2 1 0 0 0 0 0 0 0
11 4 5 0 1 5 0 0 0 0 12 171 49 76 70 48 0 0 0 0 0 4 18 148 480 1113 1888 1808 1644 1841 1882 1911 1940 1914 1805 1708 1633 1594 1606 1589 1534 1544 1551 1535 1319 1155 1092 1089 999 967 1015 1001 960 894 794 746 721 473 106 260 491 531 488 371 292 114 92 50 9 0 0 0 0 0 2 3 2 0 0 0 0 2 8 0 0 0
6 5 3 5 8 0 0 0 0 0 99 62 0 28 92 84 30 0 0 0 0 135 298 492 914 1384 1814 1796 1731 1924 1789 1849 1836 1893 1980 1886 1765 1680 1578 1420 1379 1345 1359 1363 1205 1055 1068 1092 1060 1017 992 954 897 805 747 737 644 605 400 364 432 475 451 380 120 132 98 51 25 15 7 3 1 2 1 1 0 0 0 2 9 8 2 0 0 0
11 10 4 5 0 1 0 0 0 6 72 97 36 53 75 56 36 0 0 0 0 109 416 668 1148 1428 1660 1683 1756 1887 1780 1745 1733 1712 1859 1893 1873 1748 1583 1491 1398 1410 1387 1306 1207 1091 1088 1070 1032 936 913 918 848 745 714 611 680 560 435 274 83 75 137 164 192 150 100 55 30 9 1 0 1 0 0 0 2 9 10 2 0 0 0 0 0 0
0 2 4 12 5 0 0 0 0 2 5 91 46 162 242 172 46 0 0 87 195 125 540 870 1132 1366 1410 1419 1518 1558 1598 1457 1342 1554 1709 1817 1830 1765 1623 1481 1381 1335 1355 1367 1316 1114 980 1119 1022 928 914 898 832 758 610 203 464 443 388 98 127 111 121 160 95 58 36 9 0 0 0 1 1 0 8 45 27 2 0 0 0 0 0 0 0 0
0 0 0 0 3 0 0 0 0 0 0 64 356 272 280 157 0 0 0 0 266 357 629 912 1158 1219 1220 1295 1371 1360 1170 953 978 1152 1331 1574 1670 1594 1518 1472 1396 1343 1407 1423 1184 1104 1020 1045 1029 966 866 808 771 441 292 184 223 319 171 153 141 124 190 106 178 96 42 0 0 0 2 35 79 72 31 0 0 0 0 0 0 0 0 0 0 0
0 0 2 4 12 3 3 0 0 0 179 348 459 338 230 12 7 0 0 28 279 560 682 933 1117 1213 1240 1249 1318 1272 898 594 747 1122 1204 1296 1294 1286 1243 1207 1258 1266 1332 1353 1242 1017 957 891 869 806 761 690 555 369 129 326 146 428 412 91 158 153 158 115 61 9 4 17 68 140 7 0 0 0 0 0 0 0 0 0 0 0 0 0 0 0
0 0 0 3 11 12 4 3 0 0 182 373 419 397 280 150 84 0 0 500 477 496 816 967 1189 1186 1226 1244 1193 1057 670 292 483 928 1105 1210 1188 1234 1211 1157 1208 1212 1328 1346 1179 1058 1032 894 769 713 715 702 624 631 445 320 111 485 432 96 76 54 22 5 0 55 3 14 19 0 0 0 0 0 0 0 0 0 0 0 0 0 0 0 0 0
0 0 0 0 0 1 0 0 1 83 287 399 376 366 308 34 42 4 588 390 690 563 713 980 1171 1233 1209 1194 1055 887 650 478 537 879 1103 1196 1185 1183 1244 1270 1213 1094 1203 1373 1206 1072 971 805 685 619 592 220 468 132 182 231 294 436 352 90 0 0 0 0 0 0 0 0 0 0 0 0 0 0 0 0 0 0 0 0 0 0 0 0 0 0
0 0 0 0 0 0 0 0 0 13 141 324 317 249 349 0 0 399 560 654 544 645 447 902 1133 1232 1116 1079 966 834 664 517 659 852 1139 1131 1084 1053 1021 980 959 879 852 986 916 800 759 747 728 612 528 563 302 226 241 284 312 403 297 151 0 0 0 0 0 0 0 0 0 0 0 0 0 0 0 0 0 0 0 0 0 0 0 0 0 0
0 0 0 0 0 0 0 0 48 110 497 397 139 361 554 609 533 618 511 611 504 548 440 516 1084 1105 1023 949 878 841 687 570 734 944 1115 1078 984 843 747 630 643 638 597 692 761 717 706 850 765 815 608 234 190 273 339 191 380 370 247 0 0 0 0 0 0 0 0 0 0 0 0 0 0 0 0 0 0 0 0 0 0 0 0 0 0 0
72 76 25 103 84 0 88 402 693 723 727 649 634 634 657 646 632 647 742 607 680 503 545 618 865 1074 1004 944 868 653 574 611 733 924 1047 985 939 864 703 570 498 470 464 500 442 346 530 567 580 564 492 492 275 271 295 64 226 277 59 0 0 0 0 20 0 0 0 0 0 0 0 0 0 0 0 0 0 0 0 0 0 0 0 0 0 0
19 96 84 124 337 429 608 755 849 830 721 631 621 626 590 570 590 648 658 733 669 849 634 731 919 1034 1020 936 800 618 612 664 790 902 939 922 932 776 600 516 474 414 420 450 481 449 446 455 548 607 316 504 221 293 98 232 80 109 38 32 0 0 33 0 0 0 0 0 0 0 0 0 0 0 0 0 0 0 0 0 0 0 0 0 0 0
188 82 136 278 84 248 477 565 802 785 833 732 602 525 452 554 527 585 640 657 708 826 635 770 923 1057 1056 933 816 700 677 733 788 841 881 854 815 639 534 463 430 410 400 475 526 558 610 630 555 602 573 186 297 249 167 119 109 98 79 50 72 19 0 0 0 0 0 0 0 0 0 0 0 0 0 0 0 0 0 0 0 0 0 0 0 0
39 36 51 91 119 0 260 532 573 531 534 546 578 537 473 547 480 510 527 655 723 857 854 908 917 920 924 893 795 778 759 759 782 822 826 775 691 560 446 405 361 371 422 453 522 527 587 508 462 461 299 280 290 218 170 125 152 100 91 48 0 0 0 0 0 0 0 0 0 0 0 0 0 0 0 0 0 0 0 0 0 0 0 0 0 0
20 0 26 138 328 238 163 336 475 526 550 632 620 592 564 543 558 544 614 699 783 955 1092 1030 1033 1010 917 926 859 805 774 766 754 746 746 681 599 479 366 306 306 351 345 409 508 555 591 563 474 172 227 214 181 201 197 170 139 82 84 48 0 0 0 0 0 0 0 0 0 0 0 0 0 0 0 0 0 0 0 0 0 0 0 0 0 0
2 5 2 188 258 287 347 459 393 334 424 557 538 435 452 527 550 496 519 519 592 784 960 935 989 855 776 754 760 740 822 788 774 738 702 623 528 372 265 243 331 336 296 321 350 477 554 537 393 224 172 238 168 204 165 97 31 44 14 0 0 0 0 0 0 0 0 0 0 0 0 0 0 0 0 0 0 0 0 0 0 0 0 0 0 0
2 29 0 72 26 410 461 435 529 479 382 522 503 484 531 485 353 372 454 454 532 648 786 903 776 709 723 707 666 732 800 795 801 716 633 526 415 287 192 198 264 291 313 290 312 380 448 489 312 348 236 179 134 143 83 40 76 81 1 0 0 0 0 0 0 0 0 0 0 0 0 0 0 0 0 0 0 0 0 0 0 0 0 0 0 0
Wind_Speed
nan nan nan nan nan nan nan nan nan nan nan nan nan nan nan nan nan nan nan nan nan nan nan nan nan nan nan nan nan nan nan 37 39 36 33 31 34 35 34 31 28 27 27 29 29 27 28 29 27 28 29 31 33 35 36 36 35 36 33 34 30 26 26 26 23 20 20 18 16 14 13 15 15 16 17 19 16 13 11 10 10 12 14 16 15 15
nan nan nan nan nan nan nan nan nan nan nan nan nan nan nan nan nan nan nan nan nan nan nan nan nan nan nan nan 29 29 35 34 36 35 31 29 30 31 32 30 26 26 28 29 26 27 28 29 28 27 29 31 33 30 33 34 37 38 38 35 31 28 26 29 24 20 17 15 12 12 13 14 15 16 17 17 15 13 10 9 10 13 14 15 16 16
nan nan nan nan nan nan nan nan nan nan nan nan nan nan nan nan nan nan nan nan nan nan nan nan nan nan nan nan nan 26 27 28 32 34 31 31 28 28 28 28 28 25 24 23 26 28 28 29 28 26 27 28 29 30 32 36 37 36 37 36 36 31 27 28 25 21 18 14 12 13 13 15 15 14 15 15 14 12 12 11 11 13 14 16 17 18
nan nan nan nan nan nan nan nan nan nan nan nan nan nan nan nan nan nan nan nan nan nan nan nan nan nan nan nan nan nan 32 28 28 31 33 32 30 26 26 29 27 23 23 24 27 29 29 30 28 25 28 28 26 27 32 34 33 32 34 37 35 28 25 27 26 23 21 15 13 15 14 15 14 14 16 15 15 14 14 13 13 15 16 16 17 15
nan nan nan nan nan nan nan nan nan nan nan nan nan nan nan nan nan nan nan nan nan nan nan nan nan nan nan nan nan 34 35 35 31 35 33 31 26 24 28 28 26 24 20 22 25 27 29 29 28 28 28 28 25 25 29 30 29 30 32 32 33 27 24 23 22 22 21 17 16 16 15 16 17 16 16 15 14 13 13 13 13 15 17 16 16 14
nan nan nan nan nan nan nan nan nan nan nan nan nan nan nan nan nan nan nan nan nan nan nan nan nan nan nan nan nan 34 36 31 29 31 30 29 28 29 26 24 18 14 17 23 24 25 25 26 27 27 29 28 27 28 29 30 30 32 32 31 32 28 24 24 20 21 20 16 15 14 14 16 15 17 16 16 16 15 15 15 14 15 16 16 16 14
nan nan nan nan nan nan nan nan nan nan nan nan nan nan nan nan nan nan nan nan nan nan nan nan nan nan nan nan 30 30 30 26 27 25 27 28 27 25 22 20 19 16 10 14 20 22 24 24 27 30 33 33 33 31 31 31 31 31 31 29 28 26 25 26 26 24 22 18 15 14 14 15 16 18 13 13 13 14 14 16 18 16 16 17 17 15
nan nan nan nan nan nan nan nan nan nan nan nan nan nan nan nan nan nan nan nan nan nan nan nan nan nan nan nan 33 28 26 24 24 24 26 25 25 22 19 18 17 11 11 18 24 26 28 29 31 34 36 36 34 33 30 27 26 28 29 27 25 25 25 25 25 26 23 19 16 15 15 16 17 16 16 16 16 14 15 17 17 17 17 16 16 17
nan nan nan nan nan nan nan nan nan nan nan nan nan nan nan nan nan nan nan nan nan nan nan nan nan nan nan 33 31 29 28 23 20 22 23 23 22 20 17 17 14 9 13 20 27 32 35 37 36 36 39 38 34 30 29 27 27 27 29 28 26 26 25 24 25 25 22 18 15 14 15 17 16 17 17 17 16 16 15 17 16 17 17 18 19 18
nan nan nan nan nan nan nan nan nan nan nan nan nan nan nan nan nan nan nan nan nan nan nan nan nan nan nan 30 30 30 28 21 16 16 19 21 20 18 17 17 16 16 19 23 28 35 39 40 40 40 39 33 27 26 27 28 25 24 25 25 23 24 22 24 26 23 20 15 13 13 14 15 16 18 18 17 17 17 16 18 18 18 18 18 19 17
nan nan nan nan nan nan nan nan nan nan nan nan nan nan nan nan nan nan nan nan nan nan nan nan nan nan nan nan 28 31 22 16 15 19 28 29 25 18 16 19 20 19 21 25 30 35 38 39 38 39 37 32 29 26 27 26 21 18 19 20 20 21 23 24 23 21 18 15 13 12 12 13 16 17 20 19 17 17 17 19 19 17 16 15 15 15
nan nan nan nan nan nan nan nan nan nan nan nan nan nan nan nan nan nan nan nan nan nan nan nan nan nan nan nan 29 19 17 20 22 16 18 20 16 14 17 20 21 22 23 26 30 33 38 37 33 30 30 29 26 25 24 23 21 19 18 19 20 22 23 22 22 21 19 16 13 11 10 11 14 17 19 19 18 17 18 18 17 15 15 15 15 15
nan nan nan nan nan nan nan nan nan nan nan nan nan nan nan nan nan nan nan nan nan nan nan nan nan nan nan nan nan 8 12 19 19 15 14 16 13 12 14 17 19 20 23 25 28 30 31 32 30 28 27 26 26 24 23 23 22 20 17 18 23 23 23 22 22 22 21 17 12 11 10 11 13 15 16 16 16 15 15 15 16 16 18 17 16 15
nan nan nan nan nan nan nan nan nan nan nan nan nan nan nan nan nan nan nan nan nan nan nan nan nan nan nan nan nan 12 11 21 19 14 15 15 12 11 12 15 17 18 20 23 26 28 30 30 28 28 27 24 21 21 22 22 22 20 17 15 18 23 23 22 21 20 20 18 15 14 13 11 13 15 15 14 15 13 12 13 16 18 19 19 16 16
nan nan nan nan nan nan nan nan nan nan nan nan nan nan nan nan nan nan nan nan nan nan nan nan nan nan nan nan nan 15 15 19 18 16 19 26 26 21 15 16 15 15 17 21 24 27 28 28 28 27 24 21 20 20 20 20 20 19 18 18 21 23 22 22 20 18 18 17 16 16 15 14 16 16 15 13 12 13 15 15 18 18 18 18 16 18
nan nan nan nan nan nan nan nan nan nan nan nan nan nan nan nan nan nan nan nan nan nan nan nan nan nan nan nan nan nan 15 18 26 30 30 27 25 20 17 14 11 12 16 20 24 27 28 27 25 22 20 19 19 20 19 20 19 20 20 21 22 23 22 21 20 18 17 17 17 18 18 17 17 16 15 13 14 16 18 18 18 17 16 17 16 17
nan nan nan nan nan nan nan nan nan nan nan nan nan nan nan nan nan nan nan nan nan nan nan nan nan nan nan nan 38 nan 25 22 26 28 27 25 23 21 19 16 13 14 16 20 24 25 24 22 19 17 16 16 18 18 19 20 21 22 23 23 24 23 22 22 21 20 19 19 20 19 18 18 17 17 15 15 16 18 18 17 16 16 16 16 17 19
nan nan nan nan nan nan nan nan nan nan nan nan nan nan nan nan nan nan nan nan nan nan nan nan nan nan nan nan 37 36 27 23 24 22 23 23 22 21 19 17 18 19 21 23 23 22 21 18 17 15 13 15 17 19 21 22 21 23 23 23 23 22 22 20 21 21 21 21 22 20 20 18 18 17 17 16 17 17 18 16 15 15 17 17 17 nan
nan nan nan nan nan nan nan nan nan nan nan nan nan nan nan nan nan nan nan nan nan nan nan nan nan nan nan nan 40 33 26 24 24 22 24 23 20 22 21 18 18 24 24 21 20 18 16 15 15 14 14 15 16 17 19 18 19 21 21 21 21 20 19 19 19 20 20 22 21 20 20 20 19 18 18 17 17 17 18 17 16 16 17 18 nan nan
nan nan nan nan nan nan nan nan nan nan nan nan nan nan nan nan nan nan nan nan nan nan nan nan nan nan nan nan 33 30 22 24 23 20 17 18 20 23 20 16 15 17 18 18 16 15 13 13 13 13 14 14 14 16 14 14 16 17 17 18 17 17 18 19 20 19 20 20 21 22 23 22 21 20 19 18 19 19 18 17 18 18 19 20 nan nan
nan nan nan nan nan nan nan nan nan nan nan nan nan nan nan nan nan nan nan nan nan nan nan nan nan nan 37 nan 37 28 24 19 17 14 15 17 22 23 20 15 12 12 14 14 14 14 14 14 13 12 11 12 12 12 12 13 15 14 13 14 15 17 18 19 18 20 20 21 23 25 25 24 23 23 20 20 20 20 19 19 19 19 19 nan nan 23
nan nan nan nan nan nan nan nan nan nan nan nan nan nan nan nan nan nan nan nan nan nan nan nan nan nan 37 41 41 30 22 20 14 17 18 21 23 22 17 15 13 11 11 13 14 14 15 15 14 12 11 11 11 11 11 11 12 12 12 12 13 15 16 18 18 20 22 23 24 25 25 25 24 23 22 21 20 21 20 20 20 nan nan nan nan 26
nan nan nan nan nan nan nan nan nan nan nan nan nan nan nan nan nan nan nan nan nan nan nan nan nan nan 38 44 42 32 25 20 19 18 22 25 26 24 20 19 20 17 18 19 19 18 17 16 14 13 14 13 11 11 12 12 12 11 11 12 12 15 15 18 20 22 23 24 25 26 25 25 25 25 25 24 21 nan nan nan nan nan nan nan 26 27
nan nan nan nan nan nan nan nan nan nan nan nan nan nan nan nan nan nan nan nan nan nan nan nan nan 37 40 45 40 30 25 22 18 18 25 27 28 29 27 26 27 26 26 26 25 23 22 19 17 16 14 13 11 13 14 14 14 13 12 13 14 17 18 21 23 24 25 25 26 26 27 26 26 27 26 26 nan nan nan nan nan nan nan 26 28 31
nan nan nan nan nan nan nan nan nan nan nan nan nan nan nan nan nan nan nan nan nan nan nan nan nan nan 42 46 42 33 32 25 19 25 28 30 31 32 31 31 29 28 28 28 27 25 23 21 20 18 16 15 14 14 15 16 16 15 15 15 16 17 20 23 24 26 26 26 27 26 26 26 nan nan nan nan nan nan nan nan nan nan nan 28 31 nan
nan nan nan nan nan nan nan nan nan nan nan nan nan nan nan nan nan nan nan nan nan nan nan nan nan 32 40 46 45 35 34 28 26 28 27 31 35 34 32 31 31 30 29 30 29 26 23 21 21 21 19 18 16 16 16 16 17 16 16 16 16 18 21 24 25 26 26 26 26 nan nan nan nan nan nan 28 28 28 nan nan nan 28 30 31 34 nan
nan nan nan nan nan nan nan nan nan nan nan nan nan nan nan nan nan nan nan nan nan nan nan nan 20 21 29 38 43 42 39 32 30 30 32 33 31 30 30 28 27 27 29 29 30 29 27 24 22 21 21 20 18 18 17 18 18 18 18 18 18 20 23 25 26 27 28 27 nan nan nan nan nan nan 29 28 nan nan nan nan 28 32 32 nan nan nan
nan nan nan nan nan nan nan nan nan nan nan nan nan nan nan nan nan nan nan nan nan nan nan 26 23 17 14 23 32 40 41 40 37 33 32 31 28 26 24 23 24 26 27 27 29 31 30 27 24 22 21 21 20 19 19 18 18 19 20 22 22 24 25 25 28 29 29 27 nan nan nan nan nan nan nan nan nan nan nan nan nan nan nan nan nan nan
nan nan nan nan nan nan nan nan nan nan nan nan nan nan nan nan nan nan nan nan nan nan nan 22 23 19 15 17 24 32 32 30 32 28 24 25 28 28 23 21 21 23 24 25 25 27 29 28 25 23 22 22 22 21 21 20 20 20 21 23 24 26 27 28 30 31 28 25 nan nan nan nan nan nan nan nan nan nan nan nan nan nan nan nan nan nan
nan nan nan nan nan nan nan nan nan nan nan nan nan nan nan nan nan nan nan nan nan nan nan 21 24 23 21 20 22 30 38 40 39 37 30 24 26 30 28 25 24 21 20 19 20 21 24 26 26 26 25 23 24 23 22 22 22 22 23 25 26 28 27 27 27 nan nan nan nan nan nan nan nan nan nan nan nan nan nan nan nan nan nan nan nan nan
nan nan nan nan nan nan nan nan nan nan nan nan nan nan nan nan nan nan nan nan 40 38 38 33 28 27 29 27 26 30 38 40 40 36 29 22 25 31 32 30 29 25 22 20 20 20 22 23 25 26 25 24 24 24 23 23 24 24 25 27 28 28 27 28 27 nan nan nan nan nan nan nan nan nan nan nan nan nan nan nan nan nan nan nan nan nan
nan nan nan nan nan nan nan nan nan nan nan nan nan nan nan nan nan nan nan nan nan 36 40 39 36 31 32 32 30 31 32 33 33 31 27 20 22 27 28 29 31 31 30 27 25 24 23 22 22 22 23 24 24 23 24 25 26 27 28 28 29 29 29 29 nan 27 25 nan nan nan nan nan nan nan nan nan nan nan nan nan nan nan nan nan nan nan
nan nan nan nan nan nan nan nan nan nan nan nan nan nan nan nan nan nan nan nan nan 40 42 39 29 26 25 28 34 32 31 29 28 26 23 20 20 21 21 23 26 29 29 28 27 26 23 21 21 22 24 24 24 24 25 27 29 30 30 30 28 29 29 30 30 28 25 nan nan nan nan nan nan nan nan nan nan nan nan nan nan nan nan nan nan nan
nan nan nan nan nan nan nan nan nan nan nan nan 37 36 40 nan nan nan nan nan nan 40 36 nan 30 29 28 27 31 31 31 27 26 22 21 22 21 20 19 19 19 21 22 22 23 23 22 23 23 24 26 26 27 28 29 30 33 33 30 27 26 28 29 31 30 29 26 nan nan nan nan nan nan nan nan nan nan nan nan nan nan nan nan nan nan nan
nan nan nan nan nan nan nan nan nan nan nan 35 nan nan nan nan nan nan nan nan nan nan nan 43 39 29 18 23 26 28 32 35 33 29 23 23 25 24 24 22 20 20 19 18 19 20 20 22 24 26 27 27 28 29 30 31 32 31 30 28 28 28 29 28 29 27 nan nan nan nan nan nan nan nan nan nan nan nan nan nan nan nan nan nan nan nan
nan nan nan nan nan nan nan nan nan nan nan nan nan nan nan nan nan nan nan nan nan 35 35 33 31 28 29 36 41 40 38 38 38 34 29 28 28 30 29 25 23 21 18 16 19 20 21 22 24 26 27 27 28 28 28 31 31 32 31 29 29 30 31 29 27 25 nan nan nan nan nan nan nan nan nan nan nan nan nan nan nan nan nan nan nan nan
nan nan nan nan nan nan nan nan nan nan nan nan nan nan nan nan nan nan nan nan nan 41 37 36 37 39 40 40 42 44 43 40 36 31 26 27 28 26 26 24 22 20 20 19 21 23 23 25 26 26 27 26 26 28 29 30 29 30 31 29 nan nan 30 27 24 21 nan nan nan nan nan nan nan nan nan nan nan nan nan nan nan nan nan nan nan nan
nan nan nan nan nan nan nan nan nan nan nan nan nan 30 33 35 nan nan nan nan 47 47 41 40 37 38 42 45 44 45 45 41 31 20 17 18 20 21 21 23 22 23 23 24 24 24 24 24 25 25 26 27 26 27 27 26 27 28 29 nan 28 29 27 23 nan nan nan nan nan nan nan nan nan nan nan nan nan nan nan nan nan nan nan nan nan nan
nan nan nan nan nan nan nan nan nan nan nan nan 27 28 31 34 nan nan nan nan 47 46 44 38 39 38 42 44 44 46 44 35 22 16 14 14 16 18 20 20 21 21 22 23 24 24 24 24 25 25 26 28 27 25 27 28 28 28 28 27 27 25 23 19 17 nan nan nan nan nan nan nan nan nan nan nan nan nan nan nan nan nan nan nan nan nan
nan nan nan nan nan nan nan nan nan nan 32 31 27 28 29 nan nan nan nan nan 43 47 48 43 37 37 40 43 45 43 40 32 24 18 20 23 27 26 26 22 21 21 19 20 22 25 25 26 26 25 25 25 25 26 28 28 28 28 27 nan 24 22 19 17 nan nan nan nan nan 23 nan nan nan nan nan nan nan nan nan nan nan nan nan nan nan nan
nan nan nan nan nan nan nan nan nan nan 32 29 28 29 28 27 nan nan nan 34 34 41 46 46 40 40 42 43 43 42 33 35 29 34 37 35 36 32 30 28 27 25 23 22 24 25 25 24 25 25 26 27 27 26 27 27 27 26 26 nan nan nan nan nan nan nan nan nan nan nan nan nan nan nan nan nan nan nan nan nan nan nan nan nan nan nan
nan nan nan nan nan nan nan nan nan nan 29 30 29 28 26 nan nan nan 27 28 29 33 39 39 41 42 43 42 37 40 43 45 46 42 40 36 35 34 32 32 32 30 28 27 28 27 26 26 27 29 28 26 26 25 26 26 26 25 25 nan nan nan nan nan nan nan nan nan nan nan nan nan nan nan nan nan nan nan nan nan nan nan nan nan nan nan
nan nan nan nan nan nan nan nan nan nan 33 34 31 31 32 nan nan 23 23 24 25 28 31 30 33 36 40 45 48 49 47 45 42 40 39 37 35 34 33 32 31 30 29 28 27 27 29 29 30 29 29 26 25 26 25 26 27 26 25 23 nan nan nan nan nan nan nan nan nan nan nan nan nan nan nan nan nan nan nan nan nan nan nan nan nan nan
nan nan nan nan nan nan nan nan nan 32 29 32 31 30 28 27 24 21 21 21 24 27 29 28 30 36 37 37 41 44 44 44 41 40 36 32 32 34 34 33 31 30 28 26 26 26 28 30 30 30 27 26 26 25 25 28 29 28 27 nan nan nan nan nan nan nan nan nan nan nan nan nan nan nan nan nan nan nan nan nan nan nan nan nan nan nan
nan nan nan 30 nan nan nan 30 29 30 29 31 34 31 29 28 26 23 21 19 22 28 31 32 34 35 32 32 33 36 36 34 36 34 34 31 32 34 34 32 31 30 29 27 26 27 27 28 29 29 28 28 28 27 28 nan 31 30 nan nan nan nan nan nan nan nan nan nan nan nan nan nan nan nan nan nan nan nan nan nan nan nan nan nan nan nan
nan nan nan 28 29 29 31 29 28 28 30 33 32 31 32 33 30 28 25 23 23 26 29 29 32 34 33 31 32 27 29 29 32 32 34 34 35 36 38 36 33 31 31 30 29 27 28 28 29 29 30 29 29 30 nan 29 nan 30 nan nan nan nan nan nan nan nan nan nan nan nan nan nan nan nan nan nan nan nan nan nan nan nan nan nan nan nan
23 nan 26 28 nan 30 27 28 28 25 25 27 30 31 30 28 27 27 27 24 24 27 31 33 34 34 33 30 30 28 26 25 27 28 30 32 34 35 36 35 31 30 31 30 29 29 28 27 27 28 29 30 29 30 29 29 28 nan nan nan nan nan nan nan nan nan nan nan nan nan nan nan nan nan nan nan nan nan nan nan nan nan nan nan nan nan
nan nan nan nan 27 nan 22 21 20 19 19 20 23 28 28 27 26 26 25 24 25 27 29 31 36 38 35 33 30 30 27 25 27 25 25 27 30 32 34 33 32 31 30 30 30 29 28 26 27 28 28 28 28 29 29 29 28 nan nan nan nan nan nan nan nan nan nan nan nan nan nan nan nan nan nan nan nan nan nan nan nan nan nan nan nan nan
nan nan nan 20 21 22 23 22 22 24 23 22 23 24 22 22 23 24 25 25 25 27 28 28 30 32 33 34 32 31 30 25 25 27 28 27 28 28 30 31 31 31 30 29 28 28 27 27 27 27 28 29 28 30 30 29 28 nan nan nan nan nan nan nan nan nan nan nan nan nan nan nan nan nan nan nan nan nan nan nan nan nan nan nan nan nan
nan nan nan 21 20 19 19 19 22 23 21 20 21 20 21 23 24 25 24 23 21 23 24 26 27 27 28 29 34 32 31 28 25 26 27 26 24 25 27 28 28 28 28 28 29 28 28 27 28 29 30 30 29 30 31 nan nan nan nan nan nan nan nan nan nan nan nan nan nan nan nan nan nan nan nan nan nan nan nan nan nan nan nan nan nan nan
nan nan nan nan nan 17 17 17 18 20 19 17 16 18 19 20 24 26 23 19 16 15 19 23 25 27 27 26 28 29 27 27 26 26 27 26 24 24 25 25 25 25 26 27 28 28 28 29 30 32 33 31 30 30 nan nan nan nan nan nan nan nan nan nan nan nan nan nan nan nan nan nan nan nan nan nan nan nan nan nan nan nan nan nan nan nan
Wind_Direction
nan nan nan nan nan nan nan nan nan nan nan nan nan nan nan nan nan nan nan nan nan nan nan nan nan nan nan nan nan nan nan 250 258 258 259 262 266 270 275 284 290 294 292 285 292 292 288 288 289 289 285 285 286 285 281 272 264 264 261 257 251 248 249 250 247 238 249 255 254 249 263 263 258 266 267 270 273 278 288 294 295 294 292 292 289 290
nan nan nan nan nan nan nan nan nan nan nan nan nan nan nan nan nan nan nan nan nan nan nan nan nan nan nan nan 237 237 249 255 262 263 264 264 263 271 280 280 282 278 263 282 285 284 280 283 289 289 288 291 291 290 290 280 269 263 261 261 257 247 244 248 242 240 241 248 262 266 264 265 268 272 277 280 282 294 293 293 287 285 292 296 294 296
nan nan nan nan nan nan nan nan nan nan nan nan nan nan nan nan nan nan nan nan nan nan nan nan nan nan nan nan nan 245 250 254 266 274 275 269 263 262 267 275 277 270 278 283 280 281 284 284 290 293 295 295 294 292 285 273 271 268 262 253 243 238 239 247 239 238 239 241 253 266 272 278 277 269 274 280 285 285 286 284 284 286 288 288 287 291
nan nan nan nan nan nan nan nan nan nan nan nan nan nan nan nan nan nan nan nan nan nan nan nan nan nan nan nan nan nan 232 242 256 269 273 271 273 273 281 287 286 284 288 295 292 291 291 290 290 289 289 291 288 284 279 278 274 264 259 251 242 238 240 247 247 242 238 245 251 256 271 270 271 287 286 284 288 288 287 288 290 286 287 285 284 287
nan nan nan nan nan nan nan nan nan nan nan nan nan nan nan nan nan nan nan nan nan nan nan nan nan nan nan nan nan 224 233 242 242 241 246 250 258 269 269 269 285 302 300 294 288 287 291 293 293 289 285 286 288 277 271 272 266 256 258 254 253 246 245 244 253 253 249 249 250 258 259 267 272 274 285 294 300 305 306 306 297 294 291 286 283 283
nan nan nan nan nan nan nan nan nan nan nan nan nan nan nan nan nan nan nan nan nan nan nan nan nan nan nan nan nan 230 231 237 234 252 258 261 258 260 270 284 285 289 303 306 308 305 297 288 280 278 280 277 267 263 262 258 249 243 248 254 251 249 246 243 249 257 255 255 265 271 276 281 281 291 302 316 322 322 326 326 312 299 292 287 284 283
nan nan nan nan nan nan nan nan nan nan nan nan nan nan nan nan nan nan nan nan nan nan nan nan nan nan nan nan 231 229 237 243 236 244 255 255 256 261 270 277 288 298 290 263 278 293 294 290 276 273 272 267 264 265 262 255 247 239 244 251 250 249 246 242 243 253 258 259 264 279 284 284 291 295 297 293 298 310 313 315 311 304 294 289 287 285
nan nan nan nan nan nan nan nan nan nan nan nan nan nan nan nan nan nan nan nan nan nan nan nan nan nan nan nan 230 230 243 246 246 245 247 244 246 258 270 278 287 298 304 294 294 293 290 283 276 273 269 268 268 270 269 266 263 258 253 251 250 249 245 240 245 250 256 265 265 269 272 276 282 284 288 295 299 302 306 306 304 301 296 289 281 275
nan nan nan nan nan nan nan nan nan nan nan nan nan nan nan nan nan nan nan nan nan nan nan nan nan nan nan 223 234 242 240 234 248 257 252 245 245 255 268 276 277 266 262 273 286 287 281 277 275 272 273 274 278 279 278 277 276 269 258 254 254 255 251 250 250 250 250 257 270 278 277 275 268 273 281 286 294 303 304 302 303 302 295 281 273 271
nan nan nan nan nan nan nan nan nan nan nan nan nan nan nan nan nan nan nan nan nan nan nan nan nan nan nan 226 239 229 232 241 248 257 247 245 256 264 275 280 279 265 261 260 268 271 272 273 273 276 275 279 285 281 272 261 261 256 250 249 247 251 253 262 260 252 254 262 267 277 278 278 277 280 283 290 299 301 303 303 304 298 287 278 269 266
nan nan nan nan nan nan nan nan nan nan nan nan nan nan nan nan nan nan nan nan nan nan nan nan nan nan nan nan 240 246 237 256 263 237 222 223 233 251 266 275 273 269 265 265 268 269 269 269 275 283 297 308 302 296 294 288 277 259 255 257 256 257 266 275 270 262 266 270 271 270 274 281 287 292 294 297 299 295 296 297 297 289 274 264 265 270
nan nan nan nan nan nan nan nan nan nan nan nan nan nan nan nan nan nan nan nan nan nan nan nan nan nan nan nan 229 238 263 290 291 277 252 254 272 280 275 270 268 268 265 268 272 275 277 276 276 283 292 297 295 294 297 292 283 279 283 284 280 277 284 285 279 270 267 267 263 248 259 277 286 295 298 302 302 297 293 289 284 276 267 265 271 278
nan nan nan nan nan nan nan nan nan nan nan nan nan nan nan nan nan nan nan nan nan nan nan nan nan nan nan nan nan 276 261 271 286 286 274 274 276 272 267 268 266 264 266 269 274 278 280 279 280 284 287 287 292 297 297 293 289 291 297 300 294 293 296 295 288 275 263 259 248 233 245 262 274 282 290 293 289 283 283 281 277 275 275 280 280 281
nan nan nan nan nan nan nan nan nan nan nan nan nan nan nan nan nan nan nan nan nan nan nan nan nan nan nan nan nan 281 264 271 281 280 280 271 275 280 276 272 266 265 266 266 274 278 281 283 283 283 285 288 290 296 294 291 290 291 295 297 292 292 292 289 283 272 259 247 235 231 244 260 269 275 280 279 280 274 272 276 278 279 282 282 284 278
nan nan nan nan nan nan nan nan nan nan nan nan nan nan nan nan nan nan nan nan nan nan nan nan nan nan nan nan nan 271 276 273 284 266 234 224 225 228 237 251 265 275 269 265 271 273 277 280 285 286 289 294 300 302 296 286 285 289 292 296 298 293 288 288 283 267 253 241 235 239 249 260 263 268 267 266 268 272 279 282 281 278 280 283 281 272
nan nan nan nan nan nan nan nan nan nan nan nan nan nan nan nan nan nan nan nan nan nan nan nan nan nan nan nan nan nan 260 257 245 235 236 240 241 240 243 256 272 281 276 266 264 267 274 284 292 295 296 295 293 294 289 288 289 289 288 291 296 293 283 280 276 263 253 246 243 248 258 263 265 262 260 257 259 264 275 280 278 278 278 278 276 271
nan nan nan nan nan nan nan nan nan nan nan nan nan nan nan nan nan nan nan nan nan nan nan nan nan nan nan nan 215 nan 235 234 239 233 232 238 245 249 252 256 265 275 277 269 260 265 280 287 293 297 296 285 283 287 292 291 292 292 290 290 291 289 280 275 269 261 256 252 251 252 257 263 263 261 260 263 264 269 271 273 273 274 273 271 272 274
nan nan nan nan nan nan nan nan nan nan nan nan nan nan nan nan nan nan nan nan nan nan nan nan nan nan nan nan 220 228 237 230 240 239 238 242 251 259 261 265 268 267 263 262 264 273 284 288 288 288 288 289 292 295 296 296 295 294 291 291 285 279 278 271 264 259 257 256 254 254 255 254 255 254 254 258 266 269 271 268 266 267 266 267 271 nan
nan nan nan nan nan nan nan nan nan nan nan nan nan nan nan nan nan nan nan nan nan nan nan nan nan nan nan nan 231 234 241 237 239 239 238 242 245 248 252 264 265 259 258 266 278 283 288 285 282 290 300 297 291 293 297 293 292 292 288 283 277 274 271 269 263 261 257 256 252 250 253 257 255 251 253 258 263 265 266 264 262 263 267 268 nan nan
nan nan nan nan nan nan nan nan nan nan nan nan nan nan nan nan nan nan nan nan nan nan nan nan nan nan nan nan 241 249 246 248 248 248 251 258 256 253 261 273 277 269 265 267 277 285 285 278 282 296 307 307 302 301 301 291 289 293 288 279 270 263 261 264 270 271 266 260 257 253 253 254 252 250 255 260 265 263 262 262 262 264 265 270 nan nan
nan nan nan nan nan nan nan nan nan nan nan nan nan nan nan nan nan nan nan nan nan nan nan nan nan nan 210 nan 232 246 252 249 265 274 263 257 252 260 269 270 273 272 266 269 280 285 285 282 280 287 299 300 298 297 290 284 288 290 286 282 274 269 266 268 272 270 267 263 259 261 260 257 252 251 254 259 260 262 263 264 265 267 271 nan nan 274
nan nan nan nan nan nan nan nan nan nan nan nan nan nan nan nan nan nan nan nan nan nan nan nan nan nan 208 223 229 237 243 249 249 273 270 258 255 261 258 253 261 266 267 272 274 277 281 280 279 283 291 296 301 303 295 280 275 276 281 282 271 263 267 273 268 267 265 263 265 267 264 257 251 251 255 258 259 264 266 268 269 nan nan nan nan 279
nan nan nan nan nan nan nan nan nan nan nan nan nan nan nan nan nan nan nan nan nan nan nan nan nan nan 215 221 224 232 231 243 249 254 259 257 259 255 250 247 248 258 269 273 270 269 273 280 284 286 294 301 300 294 284 278 280 278 278 278 267 264 265 268 267 265 265 267 268 267 264 261 256 254 256 259 261 nan nan nan nan nan nan nan 281 279
nan nan nan nan nan nan nan nan nan nan nan nan nan nan nan nan nan nan nan nan nan nan nan nan nan 214 214 216 219 229 235 226 243 262 258 253 251 256 257 257 259 259 263 268 265 262 266 271 275 278 285 290 288 287 283 278 277 275 273 273 270 270 271 268 267 266 266 267 267 267 265 262 260 258 258 260 nan nan nan nan nan nan nan 284 283 278
nan nan nan nan nan nan nan nan nan nan nan nan nan nan nan nan nan nan nan nan nan nan nan nan nan nan 217 214 216 232 230 227 236 238 256 258 252 256 258 260 259 263 267 270 267 267 269 268 272 272 275 279 281 281 281 279 279 280 279 278 275 271 268 266 267 268 268 269 268 266 266 263 nan nan nan nan nan nan nan nan nan nan nan 289 286 nan
nan nan nan nan nan nan nan nan nan nan nan nan nan nan nan nan nan nan nan nan nan nan nan nan nan 217 217 216 219 233 240 236 238 247 246 258 266 265 266 270 270 274 277 275 266 267 271 267 262 264 270 274 277 281 282 280 281 284 283 281 278 274 267 266 267 269 270 269 268 nan nan nan nan nan nan 264 267 273 nan nan nan 280 283 285 285 nan
nan nan nan nan nan nan nan nan nan nan nan nan nan nan nan nan nan nan nan nan nan nan nan nan 209 219 220 216 221 227 245 249 245 246 254 252 255 265 271 274 277 277 278 273 262 257 258 262 268 267 268 271 274 278 279 280 283 286 285 280 272 269 268 266 267 269 268 267 nan nan nan nan nan nan 261 260 nan nan nan nan 278 280 280 nan nan nan
nan nan nan nan nan nan nan nan nan nan nan nan nan nan nan nan nan nan nan nan nan nan nan 199 199 216 217 219 219 230 232 232 233 240 246 250 259 264 265 269 271 266 263 260 256 257 261 264 265 267 268 269 272 275 274 276 280 283 283 277 270 268 266 264 266 266 264 266 nan nan nan nan nan nan nan nan nan nan nan nan nan nan nan nan nan nan
nan nan nan nan nan nan nan nan nan nan nan nan nan nan nan nan nan nan nan nan nan nan nan 197 205 203 219 228 221 224 231 244 251 240 232 247 254 254 260 273 278 274 269 267 264 260 259 263 263 264 267 269 273 277 278 276 276 274 273 270 270 270 268 268 269 265 262 268 nan nan nan nan nan nan nan nan nan nan nan nan nan nan nan nan nan nan
nan nan nan nan nan nan nan nan nan nan nan nan nan nan nan nan nan nan nan nan nan nan nan 214 204 195 211 220 230 229 232 235 234 236 238 252 262 264 266 268 272 276 280 276 273 266 261 263 263 265 268 272 277 276 273 272 274 274 272 268 268 270 269 272 276 nan nan nan nan nan nan nan nan nan nan nan nan nan nan nan nan nan nan nan nan nan
nan nan nan nan nan nan nan nan nan nan nan nan nan nan nan nan nan nan nan nan 203 204 201 202 218 202 204 216 224 230 235 233 240 250 256 255 263 271 273 269 263 264 269 273 272 267 265 266 265 268 271 272 273 274 272 270 270 268 267 266 267 267 266 266 268 nan nan nan nan nan nan nan nan nan nan nan nan nan nan nan nan nan nan nan nan nan
nan nan nan nan nan nan nan nan nan nan nan nan nan nan nan nan nan nan nan nan nan 205 217 208 204 205 207 213 223 232 242 249 250 251 255 257 266 272 275 269 259 255 261 269 270 268 269 274 275 275 275 273 271 270 269 270 269 269 266 261 260 263 265 267 nan 274 276 nan nan nan nan nan nan nan nan nan nan nan nan nan nan nan nan nan nan nan
nan nan nan nan nan nan nan nan nan nan nan nan nan nan nan nan nan nan nan nan nan 217 222 219 207 209 221 223 229 229 241 246 250 254 254 254 259 266 271 270 260 255 259 264 266 268 269 273 270 264 261 261 263 262 261 264 265 265 263 259 259 263 267 270 274 276 280 nan nan nan nan nan nan nan nan nan nan nan nan nan nan nan nan nan nan nan
nan nan nan nan nan nan nan nan nan nan nan nan 195 198 198 nan nan nan nan nan nan 215 213 nan 224 221 220 221 236 238 244 255 260 252 261 264 258 259 262 267 266 263 257 257 261 266 266 260 256 255 257 257 256 256 255 257 261 258 254 257 260 264 267 272 275 281 285 nan nan nan nan nan nan nan nan nan nan nan nan nan nan nan nan nan nan nan
nan nan nan nan nan nan nan nan nan nan nan 190 nan nan nan nan nan nan nan nan nan nan nan 222 227 240 237 232 239 248 242 241 243 252 247 257 267 275 284 283 281 280 282 277 275 274 273 271 265 262 261 260 259 259 261 263 266 266 263 265 266 264 265 268 273 278 nan nan nan nan nan nan nan nan nan nan nan nan nan nan nan nan nan nan nan nan
nan nan nan nan nan nan nan nan nan nan nan nan nan nan nan nan nan nan nan nan nan 210 228 231 244 248 235 223 222 227 238 240 239 237 249 253 257 271 274 274 275 274 276 270 272 271 273 273 271 267 261 256 259 261 263 265 264 265 265 265 266 266 265 265 267 272 nan nan nan nan nan nan nan nan nan nan nan nan nan nan nan nan nan nan nan nan
nan nan nan nan nan nan nan nan nan nan nan nan nan nan nan nan nan nan nan nan nan 203 213 230 231 237 238 231 235 235 236 237 241 237 235 246 245 249 265 265 268 266 260 252 261 262 259 260 263 262 260 260 261 263 259 256 261 265 267 268 nan nan 270 265 266 269 nan nan nan nan nan nan nan nan nan nan nan nan nan nan nan nan nan nan nan nan
nan nan nan nan nan nan nan nan nan nan nan nan nan 180 186 191 nan nan nan nan 203 203 210 233 235 241 240 243 242 244 243 242 241 233 220 227 245 250 242 253 255 259 262 257 247 250 257 260 260 262 265 263 262 263 265 266 265 269 270 nan 272 275 272 265 nan nan nan nan nan nan nan nan nan nan nan nan nan nan nan nan nan nan nan nan nan nan
nan nan nan nan nan nan nan nan nan nan nan nan 190 187 186 192 nan nan nan nan 207 208 211 225 235 238 249 250 250 251 248 245 235 226 220 230 244 256 258 253 253 255 263 271 272 266 262 259 261 260 259 264 271 272 269 270 272 271 272 271 273 278 282 277 271 nan nan nan nan nan nan nan nan nan nan nan nan nan nan nan nan nan nan nan nan nan
nan nan nan nan nan nan nan nan nan nan 199 202 197 191 192 nan nan nan nan nan 208 209 214 218 236 241 245 253 256 256 256 244 229 226 247 251 253 255 261 256 252 252 254 260 270 274 270 265 262 263 269 273 269 264 267 269 272 271 272 nan 269 271 276 278 nan nan nan nan nan 271 nan nan nan nan nan nan nan nan nan nan nan nan nan nan nan nan
nan nan nan nan nan nan nan nan nan nan 194 199 200 200 198 204 nan nan nan 211 210 212 215 223 227 241 244 246 248 248 243 238 238 248 254 253 254 250 249 251 250 251 253 254 258 262 267 270 272 271 267 259 262 264 265 266 266 267 268 nan nan nan nan nan nan nan nan nan nan nan nan nan nan nan nan nan nan nan nan nan nan nan nan nan nan nan
nan nan nan nan nan nan nan nan nan nan 201 208 209 211 209 nan nan nan 209 214 214 210 217 227 231 233 243 252 248 241 242 242 249 254 257 259 260 254 249 247 249 248 248 250 256 257 257 261 261 259 260 264 266 265 264 264 264 263 266 nan nan nan nan nan nan nan nan nan nan nan nan nan nan nan nan nan nan nan nan nan nan nan nan nan nan nan
nan nan nan nan nan nan nan nan nan nan 209 210 207 212 215 nan nan 218 208 206 216 215 220 227 236 236 239 237 235 242 245 249 256 257 254 252 253 252 250 250 254 256 256 256 255 256 257 255 259 262 261 259 260 259 259 262 261 258 260 264 nan nan nan nan nan nan nan nan nan nan nan nan nan nan nan nan nan nan nan nan nan nan nan nan nan nan
nan nan nan nan nan nan nan nan nan 209 201 203 219 223 219 223 225 225 225 213 209 217 222 236 233 236 238 243 247 245 249 251 247 248 244 241 242 244 246 248 250 253 254 256 257 255 254 255 256 257 258 258 256 255 258 262 261 260 262 nan nan nan nan nan nan nan nan nan nan nan nan nan nan nan nan nan nan nan nan nan nan nan nan nan nan nan
nan nan nan 208 nan nan nan 217 212 207 204 205 220 225 228 226 228 229 232 222 212 211 221 231 239 242 247 250 251 254 252 255 258 252 250 244 244 247 250 251 253 255 255 255 257 259 257 259 262 260 258 253 254 252 254 nan 262 264 nan nan nan nan nan nan nan nan nan nan nan nan nan nan nan nan nan nan nan nan nan nan nan nan nan nan nan nan
nan nan nan 211 208 211 219 217 209 205 208 208 214 222 225 223 224 230 230 225 218 217 219 235 236 245 246 250 253 244 253 254 256 249 245 246 246 245 246 247 248 250 253 251 251 255 256 256 259 261 259 253 252 252 nan 257 nan 267 nan nan nan nan nan nan nan nan nan nan nan nan nan nan nan nan nan nan nan nan nan nan nan nan nan nan nan nan
197 nan 209 212 nan 218 215 201 207 200 202 210 211 214 221 224 222 224 226 226 225 223 225 228 233 237 246 251 256 256 249 252 254 252 249 245 247 248 249 249 248 250 255 257 256 254 253 256 256 257 258 258 255 255 255 257 257 nan nan nan nan nan nan nan nan nan nan nan nan nan nan nan nan nan nan nan nan nan nan nan nan nan nan nan nan nan
nan nan nan nan 213 nan 219 212 207 207 207 207 212 216 217 213 215 221 225 227 229 230 234 239 241 236 233 235 246 254 252 251 260 260 255 249 247 247 246 247 246 246 250 255 254 254 254 254 255 257 257 256 256 257 258 259 261 nan nan nan nan nan nan nan nan nan nan nan nan nan nan nan nan nan nan nan nan nan nan nan nan nan nan nan nan nan
nan nan nan 204 214 214 213 211 208 213 214 212 213 217 216 217 219 215 219 227 234 234 234 234 241 248 240 240 235 246 253 249 256 265 261 253 250 248 247 246 246 250 253 255 255 257 256 254 256 259 259 257 255 257 258 261 261 nan nan nan nan nan nan nan nan nan nan nan nan nan nan nan nan nan nan nan nan nan nan nan nan nan nan nan nan nan
nan nan nan 214 217 215 222 219 222 224 220 217 214 212 211 214 224 223 219 223 235 241 237 240 230 229 247 255 256 249 253 253 253 256 258 254 252 249 247 246 246 250 251 252 250 252 252 255 258 257 256 254 255 257 259 nan nan nan nan nan nan nan nan nan nan nan nan nan nan nan nan nan nan nan nan nan nan nan nan nan nan nan nan nan nan nan
nan nan nan nan nan 218 212 212 223 225 222 221 217 211 214 217 228 229 222 222 228 245 252 246 239 234 234 235 247 254 252 252 252 250 252 248 245 244 247 248 246 244 247 248 249 251 253 251 250 251 255 255 254 257 nan nan nan nan nan nan nan nan nan nan nan nan nan nan nan nan nan nan nan nan nan nan nan nan nan nan nan nan nan nan nan nan